Location: Cudham
(51.3000°N, 0.0667°E)
Time: 16:52:56
(UTC+00:00)

USA 229 DEB - Pass Details

Date: 21 April 2026
Orbit: 844 x 1364 km, 63.4° (Epoch: 10 January)

Event Time Altitude Azimuth Distance (km) Brightness Sun altitude
Rises 00:37:57 0° 315° (NW) 3,969 7.1 -26.3°
Reaches altitude 10° 00:40:34 10° 311° (NW) 3,077 6.4 -26.2°
Maximum altitude 00:47:51 58° 235° (SW) 1,447 4.1 -26.0°
Enters shadow 00:49:20 51° 197° (SSW) 1,571 4.1 -25.9°
